Location: Kellogg
(38.0159°N, 90.0546°W)
Time: 14:50:52
(UTC+00:00)

Courier 1B - Pass Details

Date: 11 September 2024
Orbit: 962 x 1208 km, 28.3° (Epoch: 07 October)

Event Time Altitude Azimuth Distance (km) Brightness Sun altitude
Rises 21:57:34 0° 241° (WSW) 3,987 11.9 25.7°
Reaches altitude 10° 22:00:33 10° 233° (SW) 3,059 11.5 25.1°
Maximum altitude 22:07:23 36° 169° (S) 1,780 9.2 23.8°
Drops below altitude 10° 22:14:23 10° 106° (ESE) 3,141 9.7 22.5°
Sets 22:17:30 0° 98° (E) 4,106 10.2 21.9°
